Regional Weather Roundup
Issued by NWS

Home | Current Version | Previous Version | Graphics & Text | Print | Product List | Glossary On
Versions: 1 2 3 4 5 6 7 8 9 10 11 12 13 14 15 16 17 18 19 20 21 22 23 24 25 26 27 28 29 30 31 32 33 34 35 36 37 38 39 40 41 42 43 44 45 46 47 48 49 50
000
ASUS43 KLOT 251709
RWRIL

ILLINOIS REGIONAL WEATHER ROUNDUP
NATIONAL WEATHER SERVICE CHICAGO/ROMEOVILLE IL
1200 PM CDT THU AUG 25 2016

NOTE: "FAIR" INDICATES FEW OR NO CLOUDS BELOW 12,000 FEET WITH NO
SIGNIFICANT WEATHER AND/OR OBSTRUCTIONS TO VISIBILITY.

* THESE STATIONS ARE NOT UNDER NWS QUALITY CONTROL. THEY ALSO MAY NOT
  REPORT WEATHER SUCH AS PRECIPITATION OR FOG.

ILZ001-002-007-009-015-016-024-251800-
NORTHWEST ILLINOIS

CITY           SKY/WX    TMP DP  RH WIND       PRES   REMARKS
MOLINE         MOSUNNY   77  66  68 CALM      30.07S
STERLING*      CLOUDY    78  67  68 CALM      30.07S HX  80
SAVANNA*       CLOUDY    78  64  63 W6        30.07S
$$

ILZ003-004-008-010-011-017-018-251800-
NORTH CENTRAL ILLINOIS

CITY           SKY/WX    TMP DP  RH WIND       PRES   REMARKS
ROCKFORD       CLOUDY    78  64  61 N3        30.07R HX  80
FREEPORT*      CLOUDY    75  63  66 CALM      30.10R
ROCHELLE*      MOSUNNY   76  67  73 CALM      30.06F
DE KALB*       MOSUNNY   78  69  73 NW6       30.06F HX  80
$$

ILZ005-006-012>014-019>023-251800-
NORTHEAST ILLINOIS

CITY           SKY/WX    TMP DP  RH WIND       PRES   REMARKS
CHICAGO-OHARE  PTSUNNY   76  68  76 NW6       30.04R
CHICAGO-MIDWAY CLOUDY    77  70  79 NW8       30.04R
AURORA         CLOUDY    80  69  69 W5        30.05S HX  83
LANSING*       CLOUDY    77  73  86 W8        30.04S
JOLIET*          N/A    N/A N/A N/A MISG        N/A
WAUKEGAN       MOSUNNY   79  65  62 CALM      30.04R HX  81
DUPAGE AIRPORT CLOUDY    80  69  69 CALM      30.04F HX  83
KANKAKEE*      CLOUDY    78  71  80 W10G16    30.07R HX  80
WHEELING       CLOUDY    78  68  71 CALM      30.05R HX  80
MORRIS*        PTSUNNY   79  71  75 W6        30.04S HX  82
ROMEOVILLE*    CLOUDY    78  69  75 W7        30.05S HX  80
NORTHERLY ISL    N/A     74  69  85 N3          N/A
$$

LMZ740>746-251800-
SOUTHERN LAKE MICHIGAN

STATION/POSITION SKY/WX   TEMP    WIND        PRES    VSBY  WAVE
                          AIR SEA DIR/SP/G                  HT/PER
                          (F)     (DEG/KT/KT) (MB)    (MI)  (FT/S)
SOUTHERN BUOY              71 74  330/ 10/ 12 1016.0R         1/ 3
WILMETTE HARBOR            70 65  300/  4/  4   N/A           1
HARRISON CRIB              71     350/ 11/ 11   N/A
BURNHAM HARBOR             74      20/  5/ 10   N/A
CALUMET HARBOR             76     270/  5/ 10 1016.3R
BURNS HARBOR               74     260/  8/ 13 1017.3R
MICHIGAN CITY              73     240/ 15/ 16   N/A
MICHIGAN CITY 6N           74 73  260/ 12/ 14   N/A           2/ 3
ST. JOSEPH                 74 74  280/ 12/ 14 1016.5R         3/ 4
$$

ILZ025>027-034>036-040-047-049-050-058-095>099-251800-
WEST-CENTRAL ILLINOIS

CITY           SKY/WX    TMP DP  RH WIND       PRES   REMARKS
QUINCY         CLOUDY    77  72  84 W5        30.09F
GALESBURG*     CLOUDY    77  70  79 S3        30.09R
MACOMB*        CLOUDY    75  72  89 SW6       30.12R
JACKSONVILLE*  PTSUNNY   81  72  74 W8        30.10R HX  85
PITTSFIELD*    CLOUDY    80  72  76 SW8       30.11S HX  84
$$

ILZ028>032-037-038-041>044-048-051>054-059>061-251800-
CENTRAL ILLINOIS

CITY           SKY/WX    TMP DP  RH WIND       PRES   REMARKS
PONTIAC        CLOUDY    80  74  83 W7        30.08S HX  84
BLOOMINGTON    CLOUDY    77  71  82 W8        30.10S
DECATUR        MOSUNNY   84  70  62 W10G17    30.09S HX  88
PEORIA         CLOUDY    77  72  84 SW5       30.08R
LACON*         CLOUDY    78  70  76 SW6       30.06S HX  80
LINCOLN*       CLOUDY    81  72  74 W5        30.08F HX  85
SPRINGFIELD    PTSUNNY   84  71  65 W6        30.09S HX  89
TAYLORVILLE    PTSUNNY   82  72  70 SW7       30.10S HX  87
$$

ILZ033-039-045-046-055>057-062-063-251800-
EAST-CENTRAL ILLINOIS

CITY           SKY/WX    TMP DP  RH WIND       PRES   REMARKS
CHAMPAIGN      MOSUNNY   81  71  71 W6        30.09R HX  85
RANTOUL*       MOSUNNY   81  73  76 W7        30.09S HX  86
MATTOON        SUNNY     84  69  60 VRB5      30.09R HX  88
PARIS*         SUNNY     85  72  64 W3        30.10R HX  90
$$

ILZ079-100>102-251800-
SOUTHWEST ILLINOIS

CITY           SKY/WX    TMP DP  RH WIND       PRES   REMARKS
ALTON          PTSUNNY   84  73  70 W8        30.10R HX  91
BELLEVILLE     MOSUNNY   89  71  55 S8        30.07F HX  95
CAHOKIA*       SUNNY     90  71  53 W8        30.08S HX  96
SPARTA*        SUNNY     86  75  68 SW3       30.11S HX  94
$$

ILZ064>066-069>071-074>076-080>082-084>086-088>090-092>094-251800-
SOUTH-CENTRAL ILLINOIS

CITY           SKY/WX    TMP DP  RH WIND       PRES   REMARKS
CARBONDALE     SUNNY     87  73  62 W10       30.11S HX  94
CAIRO*         SUNNY     87  74  65 SW6       30.12S HX  96
EFFINGHAM*     MOSUNNY   85  74  69 SW3       30.11S HX  93
MARION         SUNNY     88  73  62 SW9       30.12S HX  96
MT. VERNON     SUNNY     88  73  62 SW10      30.11S HX  96
CENTRALIA*     MOSUNNY   86  78  75 SW10      30.09S HX  98
SALEM*         PTSUNNY   86  75  70 SW8       30.10S HX  94
$$

ILZ067-068-072-073-078-083-087-091-251800-
SOUTHEAST ILLINOIS

CITY           SKY/WX    TMP DP  RH WIND       PRES   REMARKS
LAWRENCEVILLE  MOSUNNY   87  75  67 SW7       30.09R HX  96
FLORA*         PTSUNNY   87  77  72 SW5       30.09S HX  99
FAIRFIELD*     SUNNY     86  76  72 SW6       30.09S HX  97
HARRISBURG*    SUNNY     89  76  65 W8        30.11S HX  99
ROBINSON*      MOSUNNY   85  76  73 W7        30.10R HX  95
CARMI*         SUNNY     88  77  69 SW9       30.09S HX  99
$$

ABBREVIATIONS USED IN REMARKS
   TC - TEMPERATURE IN CELSIUS
  WCI - WIND CHILL INDEX
   HX - HEAT INDEX
  VSB - VISIBILITY
$$





USA.gov is the U.S. government's official web portal to all federal, state and local government web resources and services.